Sparrevohn, AK

1:49 AM AKST on November 19, 2017 (GMT -0900)
Sparrevohn LRRS

Weather History for PASV - March, 2013

Change the Weather History Date:

Sunday, March 31, 2013

  Actual Average Record
Temperature  
Mean Temperature 32 °F -  
Max Temperature 35 °F 26 °F 52 °F (2016)
Min Temperature 28 °F 11 °F -18 °F (2004)
Degree Days  
Heating Degree Days 34    
Moisture  
Dew Point 25 °F    
Average Humidity 76    
Maximum Humidity 88    
Minimum Humidity 62    
Precipitation  
Precipitation 0.00 in - - ()
Sea Level Pressure  
Sea Level Pressure 30.24 in    
Wind  
Wind Speed 2 mph (North)    
Max Wind Speed 8 mph    
Max Gust Speed -    
Visibility 10 miles    
Events Rain , Snow    
Averages and records for this station are not official NWS values.
T = Trace of Precipitation, MM = Missing Value Source: NWS Daily Summary

Daily Weather History Graph

Daily Weather History Graph

Search for Another Location

Airport or City:

Trip Planner

Search our weather history database for the weather conditions in past years. The results will help you decide how hot, cold, wet, or windy it might be!

Date:

Astronomy

Mar. 31, 2013 Rise Set
Actual Time 7:47 AM AKDT 9:06 PM AKDT
Civil Twilight 7:03 AM AKDT 9:51 PM AKDT
Nautical Twilight 6:07 AM AKDT 10:47 PM AKDT
Astronomical Twilight 5:01 AM AKDT 11:54 PM AKDT
Moon 2:39 AM AKDT (3/31) 9:27 AM AKDT (3/31)
Length of Visible Light 14h 48m
Length of Day
13h 19m
Waning Gibbous, 76% of the Moon is Illuminated
Mar 31
Waning Gibbous
Apr 2
Last Quarter
Apr 10
New
Apr 18
First Quarter
Apr 25
Full

Hourly Weather History & Observations

Time (AKDT) Temp. Windchill Dew Point Humidity Pressure Visibility Wind Dir Wind Speed Gust Speed Precip Events Conditions
12:55 AM 29.3 °F - 24.6 °F 83% 30.23 in 10.0 mi North 2.3 mph - N/A   Clear
1:55 AM 29.8 °F - 26.4 °F 87% 30.24 in 10.0 mi SSW 1.2 mph - N/A   Overcast
2:55 AM 29.8 °F - 26.6 °F 88% 30.24 in 10.0 mi Variable 1.2 mph - N/A Rain Light Freezing Rain
3:10 AM 30.2 °F - 26.6 °F 86% 30.24 in 10.0 mi Calm Calm - N/A   Mostly Cloudy
3:55 AM 29.7 °F - 26.1 °F 86% 30.24 in 10.0 mi Variable 1.2 mph - N/A   Mostly Cloudy
4:55 AM 28.8 °F - 25.5 °F 88% 30.25 in 10.0 mi NE 2.3 mph - N/A   Overcast
5:55 AM 29.3 °F - 25.5 °F 86% 30.25 in 10.0 mi Variable 1.2 mph - N/A   Overcast
6:55 AM 30.0 °F - 25.2 °F 82% 30.26 in 10.0 mi South 1.2 mph - N/A   Overcast
7:55 AM 29.7 °F - 25.0 °F 83% 30.27 in 10.0 mi West 2.3 mph - N/A   Overcast
8:55 AM 29.1 °F - 25.2 °F 85% 30.27 in 10.0 mi NW 1.2 mph - N/A   Overcast
9:55 AM 29.7 °F - 26.1 °F 86% 30.27 in 10.0 mi WSW 2.3 mph - N/A   Overcast
10:55 AM 30.9 °F 27.5 °F 25.2 °F 79% 30.27 in 10.0 mi NE 3.5 mph - N/A   Overcast
11:55 AM 33.1 °F - 26.1 °F 75% 30.27 in 10.0 mi Variable 1.2 mph - N/A   Overcast
12:55 PM 34.3 °F - 25.3 °F 70% 30.27 in 10.0 mi Variable 2.3 mph - N/A   Overcast
1:55 PM 34.5 °F 28.6 °F 25.9 °F 71% 30.27 in 10.0 mi NE 6.9 mph - N/A   Overcast
2:40 PM 35.6 °F 32.8 °F 26.6 °F 70% 30.26 in 10.0 mi SSE 3.5 mph - N/A Rain Light Rain
2:55 PM 34.3 °F - 25.9 °F 71% 30.26 in 10.0 mi Variable 1.2 mph - N/A Rain , Snow Light Rain Showers
3:10 PM 35.6 °F - 24.8 °F 65% 30.25 in 10.0 mi Variable 2.3 mph - N/A   Overcast
3:25 PM 35.6 °F - 24.8 °F 65% 30.25 in 10.0 mi Variable 2.3 mph - N/A   Overcast
3:55 PM 34.9 °F 29.9 °F 26.8 °F 72% 30.25 in 10.0 mi NE 5.8 mph - N/A   Overcast
4:55 PM 34.9 °F 32.0 °F 23.0 °F 62% 30.24 in 10.0 mi Variable 3.5 mph - N/A   Overcast
5:55 PM 34.9 °F 32.0 °F 27.1 °F 73% 30.23 in 10.0 mi North 3.5 mph - N/A   Overcast
6:55 PM 34.5 °F 31.6 °F 22.6 °F 62% 30.21 in 10.0 mi NE 3.5 mph - N/A   Overcast
7:55 PM 34.7 °F - 24.1 °F 65% 30.21 in 10.0 mi Variable 2.3 mph - N/A   Overcast
8:55 PM 33.8 °F - 23.0 °F 65% 30.20 in 10.0 mi Variable 1.2 mph - N/A   Mostly Cloudy
9:55 PM 32.7 °F 25.7 °F 26.6 °F 78% 30.20 in 10.0 mi NW 8.1 mph - N/A   Mostly Cloudy
10:55 PM 32.7 °F 27.3 °F 26.8 °F 79% 30.19 in 10.0 mi NNW 5.8 mph - N/A   Overcast
11:55 PM 32.2 °F - 26.2 °F 79% 30.19 in 10.0 mi Variable 1.2 mph - N/A   Overcast